Date,TemperatureHighF,TemperatureAvgF,TemperatureLowF,DewpointHighF,DewpointAvgF,DewpointLowF,HumidityHigh,HumidityAvg,HumidityLow,PressureMaxIn,PressureMinIn,WindSpeedMaxMPH,WindSpeedAvgMPH,GustSpeedMaxMPH,PrecipitationSumIn
2013-9-1,80.1,74.3,70.9,76.0,72.7,70.0,98,95,87,29.92,29.87,6,1,9,0.04
2013-9-2,76.4,73.5,71.7,75.0,72.7,71.0,99,97,94,29.90,29.75,4,0,4,0.41
2013-9-3,75.0,69.9,60.5,73.0,69.2,60.0,99,97,93,29.90,29.75,4,0,8,0.37
2013-9-4,83.9,65.5,56.3,69.0,57.5,-99.9,99,82,52,30.00,29.89,8,-21,10,0.01
2013-9-5,79.9,64.3,51.2,65.0,57.7,48.0,99,81,55,30.17,29.94,5,0,8,0.00
2013-9-6,77.0,59.5,48.6,58.0,49.7,43.0,94,73,39,30.29,30.17,3,0,8,0.00
2013-9-7,80.6,62.9,48.1,60.0,54.0,47.0,98,76,44,30.17,29.95,5,1,10,0.00
2013-9-8,82.6,67.0,52.9,68.0,58.4,46.0,98,76,45,30.12,29.83,4,1,9,0.01
2013-9-9,73.6,57.6,44.8,56.0,48.7,43.0,95,75,43,30.29,30.12,4,0,8,0.00
2013-9-10,74.6,66.7,53.9,71.0,64.8,53.0,97,93,88,30.23,30.08,8,1,12,0.00
2013-9-11,95.4,78.6,68.5,81.0,73.3,68.0,99,85,61,30.15,30.05,8,1,13,0.00
2013-9-12,87.9,74.6,68.3,77.0,71.2,68.0,98,90,68,30.04,29.74,6,1,11,0.06
2013-9-13,82.9,70.2,59.7,74.0,66.2,56.0,99,88,63,29.82,29.65,5,0,7,0.30
2013-9-14,72.5,60.5,50.7,61.0,54.2,49.0,95,81,59,30.12,29.82,4,0,11,0.00
2013-9-15,74.3,58.3,47.2,57.0,51.0,46.0,96,79,44,30.23,30.13,5,0,9,0.00
2013-9-16,73.2,58.8,50.0,61.0,55.2,43.0,98,88,65,30.27,30.08,3,0,7,0.01
2013-9-17,71.2,53.5,40.4,51.0,43.3,37.0,93,71,41,30.46,30.28,3,0,12,0.00
2013-9-18,77.4,56.6,42.5,57.0,47.6,41.0,96,76,41,30.39,30.23,3,0,8,0.00
2013-9-19,83.1,61.4,47.4,63.0,53.5,47.0,99,79,37,30.23,30.11,5,0,8,0.00
2013-9-20,83.4,63.7,49.5,64.0,56.9,49.0,99,82,44,30.14,30.07,4,0,8,0.00
2013-9-21,76.9,64.3,52.7,69.0,61.7,52.0,99,92,72,30.08,29.77,7,1,16,0.00
2013-9-22,74.8,63.7,49.7,68.0,57.1,-99.9,98,82,51,29.90,29.69,8,-10,14,0.15
2013-9-23,71.1,55.3,43.5,53.0,46.9,42.0,95,76,48,30.06,29.90,6,0,8,0.02
2013-9-24,74.1,54.5,39.6,53.0,45.9,39.0,98,76,42,30.07,29.89,4,0,11,0.00
2013-9-25,78.9,59.4,45.4,58.0,51.2,44.0,96,77,42,30.01,29.92,3,0,7,0.00
2013-9-26,74.7,57.9,48.9,59.0,52.7,48.0,97,84,53,30.16,30.01,3,0,4,0.00
2013-9-27,68.3,57.6,48.4,58.0,53.7,47.0,97,87,67,30.31,30.15,2,0,5,0.00
2013-9-28,80.4,60.1,48.4,63.0,54.5,48.0,99,84,51,30.36,30.30,2,0,4,0.00
2013-9-29,75.9,57.6,48.3,59.0,52.6,48.0,99,86,47,30.30,30.15,2,0,5,0.00
2013-9-30,78.9,59.4,48.6,59.0,53.0,48.0,98,82,45,30.15,30.02,2,0,6,0.00